Showing default

ORBCOMM FM 105, 41181

Orbit data source: Space-Track

ORBCOMM FM 105, 41181 is a payload satellite owned by Orbcomm (US) in LEO that was launched on Tue, 22 Dec 2015 UTC via an FALCON 9 launch vehicle from the Air Force Eastern Test Range (AFETR). Payloads include a variety of satellites, spacecraft, and rockets equipped with specific instruments for various scientific and technological missions. These include communications satellites like Starlink; space stations such as the ISS; scientific satellites like the Hubble; Earth observation satellites from companies like Planet Labs, Umbra, and HawkEye 360; GPS; miniature CubeSats for education and research; and military/defense satellites.

Loading next visibility...
ORBCOMM FM 105 details
Identifier
41181, 2015-081C
Orbit
LEO
Last TLE update16 hours ago
Origin
Flag of USOrbcomm (US / ORB)
ManufacturerSNC Louisville
MissionNon-operational Commercial Communications
Bus & MotorSN-100A, Unknown motor
Mass172 kg wet, 158 kg dry
Launch date (UTC)
2015-12-22 (9 years ago)
Launch vehicle
FALCON 9
Launch site
Air Force Eastern Test Range (AFETR)
Object type
Payload
Rocket body
Debris
Shape & HBRBox + 1 Pan + 1 Ant, 13 m
Radar Cross Section2.222 m², Medium (>0.1 m² and < 1m²)

Expand to show TLE details & history

TLE from 16 hours ago
0 ORBCOMM FM 105
1 41181U 15081C   24339.52111635  .00001002  00000-0  33022-3 0  9991
2 41181  47.0030  21.3700 0001709 200.9339 159.1472 14.44881065472594
Epoch: 2024-12-04T12:30Z
Definitive object data (Epoch: 2024-12-04T12:30:24.452Z)
Latitude0.00002°
Longitude119.95306°
Altitude743.768 km
Speed7.484 km/s
True Right ascension01h 25m 28s
True Declination0° 00' 00"
Sunlit
Object was in full shadow at TLE epoch
Visualization TLE readout
Latitude-0.05709°
Longitude-63.03214°
Altitude741.521 km
Speed7.486 km/s
Apparent Right ascension13h 38m 02s
Apparent Declination-18° 53' 18"
Sunlit
Object is in daylight
Visualization observer readout
Local Sidereal Time02:13:44
Azimuth22.662° NE
Elevation-67.612°
Doppler factor1
Orbital elements
Apogee altitude744.861 km
Perigee altitude742.426 km
Semi-major axis7,121.781 km
Eccentricity0.0001709
Inclination47.003°
RAAN21.37°
Arg. of periapsis200.9339°
True anomaly159.15417°
Mean anomaly159.1472°
Eccentric anomaly159.15069°
Mean motion3.61127 °/min
BSTAR0.00033022
Orbital period99.69 mins
Loading maneuver chart data...
Loading historical data...
Loading historical data...
Loading historical data...
Loading historical data...
Loading historical data...
Loading historical data...
Loading historical data...

ORBCOMM FM 105 Visibility forecast

Observer location: undefined°, undefined

Span
Click to sort rows by Start time (UTC) header in descending order
Start Az.
Max El. time (UTC)
Max El. Az.
Max El.
End time (UTC)
End Az.
8 mins2024-12-05 05:15:21.507Z199.15° SSW2024-12-05 05:19:21.507Z145.037° SSE28.15°2024-12-05 05:23:21.507Z81.787° E
8 mins2024-12-05 07:00:21.507Z254.898° W2024-12-05 07:04:21.507Z12.204° NNE42.367°2024-12-05 07:08:21.507Z58.719° ENE
8 mins2024-12-05 08:45:21.507Z293.902° NW2024-12-05 08:49:21.507Z6.255° NNE31.586°2024-12-05 08:53:21.507Z61.973° ENE
8 mins2024-12-05 10:30:21.507Z305.65° NW2024-12-05 10:34:21.507Z21.047° NNE37.022°2024-12-05 10:38:21.507Z87.819° E
8 mins2024-12-05 12:15:21.507Z288.792° WNW2024-12-05 12:19:21.507Z188.621° SSW40.138°2024-12-05 12:23:21.507Z137.089° SSE
|